User: anonymous   Login
Location: Unspecified
(0.0000°N, 0.0000°E)
Time: 20:13:40
(UTC+01:00)
Language:

CZ-4B R/B - Orbit

View from above orbital plane
View from above orbital plane
View from above satellite
View from above satellite

Ground track
Ground track

The orbit data is extracted from the following two-line orbital elements,

1 33410U 08053C   15031.15122131  .00003060  00000-0  24121-3 0   514
2 33410 097.6148 006.3605 0125709 222.5197 136.6237 14.95456399340897
Epoch (UTC): 31 January 2015 03:37:45
Eccentricity: 0.0125709
inclination: 97.6148°
perigee height: 493 km
apogee height: 668 km
right ascension of ascending node: 6.3605°
argument of perigee: 222.5197°
revolutions per day: 14.95456399
mean anomaly at epoch: 136.6237°
orbit number at epoch: 34089

The dashed part of the orbit path shows where the satellite is in the earth's shadow,  

DLR